Time,TemperatureF,DewpointF,PressureIn,WindDirection,WindDirectionDegrees,WindSpeedMPH,WindSpeedGustMPH,Humidity,HourlyPrecipIn,Conditions,Clouds,dailyrainin,SoftwareType,DateUTC
2013-02-13 00:01:00,35.8,26.3,29.68,West,275,5.0,5.0,68,0.00,,,0.00,Wunderground v.1.12,2013-02-13 05:01:00,
2013-02-13 00:04:00,35.5,26.3,29.68,West,275,4.0,5.0,69,0.00,,,0.00,Wunderground v.1.12,2013-02-13 05:04:00,
2013-02-13 00:05:00,35.3,26.1,29.68,West,275,5.0,5.0,69,0.00,,,0.00,Wunderground v.1.12,2013-02-13 05:05:00,
2013-02-13 00:07:00,34.9,26.4,29.69,West,270,4.0,10.0,71,0.00,,,0.00,Wunderground v.1.12,2013-02-13 05:07:00,
2013-02-13 00:10:00,35.5,26.3,29.68,WSW,257,5.0,5.0,69,0.00,,,0.00,Wunderground v.1.12,2013-02-13 05:10:00,
2013-02-13 00:14:00,35.5,26.3,29.68,WSW,258,5.0,6.0,69,0.00,,,0.00,Wunderground v.1.12,2013-02-13 05:14:00,
2013-02-13 00:20:00,35.3,26.5,29.69,WSW,258,3.0,3.0,70,0.00,,,0.00,Wunderground v.1.12,2013-02-13 05:20:00,
2013-02-13 00:26:00,34.9,26.1,29.69,West,271,3.0,4.0,70,0.00,,,0.00,Wunderground v.1.12,2013-02-13 05:26:00,
2013-02-13 00:31:00,34.9,26.4,29.69,West,271,4.0,4.0,71,0.00,,,0.00,Wunderground v.1.12,2013-02-13 05:31:00,
2013-02-13 00:36:00,34.9,26.4,29.69,West,271,3.0,6.0,71,0.00,,,0.00,Wunderground v.1.12,2013-02-13 05:36:00,
2013-02-13 00:38:00,34.9,26.4,29.69,West,270,4.0,10.0,71,0.00,,,0.00,Wunderground v.1.12,2013-02-13 05:38:00,
2013-02-13 00:42:00,34.6,26.2,29.69,West,271,3.0,3.0,71,0.00,,,0.00,Wunderground v.1.12,2013-02-13 05:42:00,
2013-02-13 00:47:00,34.4,26.3,29.70,West,271,2.0,3.0,72,0.00,,,0.00,Wunderground v.1.12,2013-02-13 05:47:00,
2013-02-13 00:53:00,34.1,26.3,29.70,West,271,1.0,3.0,73,0.00,,,0.00,Wunderground v.1.12,2013-02-13 05:53:00,
2013-02-13 00:58:00,34.3,26.5,29.70,West,271,2.0,4.0,73,0.00,,,0.00,Wunderground v.1.12,2013-02-13 05:58:00,
2013-02-13 01:04:00,34.3,26.5,29.70,West,271,3.0,5.0,73,0.00,,,0.00,Wunderground v.1.12,2013-02-13 06:04:00,
2013-02-13 01:07:00,34.3,26.5,29.70,West,270,2.0,7.0,73,0.00,,,0.00,Wunderground v.1.12,2013-02-13 06:07:00,
2013-02-13 01:10:00,34.3,26.5,29.70,West,267,4.0,5.0,73,0.00,,,0.00,Wunderground v.1.12,2013-02-13 06:10:00,
2013-02-13 01:16:00,34.4,26.3,29.70,West,267,5.0,5.0,72,0.00,,,0.00,Wunderground v.1.12,2013-02-13 06:16:00,
2013-02-13 01:22:00,34.4,26.6,29.70,West,267,3.0,4.0,73,0.00,,,0.00,Wunderground v.1.12,2013-02-13 06:22:00,
2013-02-13 01:27:00,34.3,26.5,29.70,West,267,3.0,5.0,73,0.00,,,0.00,Wunderground v.1.12,2013-02-13 06:27:00,
2013-02-13 01:34:00,34.1,26.3,29.70,West,267,4.0,4.0,73,0.00,,,0.00,Wunderground v.1.12,2013-02-13 06:34:00,
2013-02-13 01:37:00,34.3,26.5,29.70,West,270,4.0,9.0,73,0.00,,,0.00,Wunderground v.1.12,2013-02-13 06:37:00,
2013-02-13 01:39:00,34.0,26.3,29.70,West,267,4.0,6.0,73,0.00,,,0.00,Wunderground v.1.12,2013-02-13 06:39:00,
2013-02-13 01:44:00,34.0,26.3,29.69,West,269,4.0,6.0,73,0.00,,,0.00,Wunderground v.1.12,2013-02-13 06:44:00,
2013-02-13 01:49:00,34.0,26.3,29.69,West,271,4.0,4.0,73,0.00,,,0.00,Wunderground v.1.12,2013-02-13 06:49:00,
2013-02-13 01:54:00,33.8,26.1,29.69,West,273,3.0,3.0,73,0.00,,,0.00,Wunderground v.1.12,2013-02-13 06:54:00,
2013-02-13 01:59:00,33.7,26.3,29.68,West,273,3.0,4.0,74,0.00,,,0.00,Wunderground v.1.12,2013-02-13 06:59:00,
2013-02-13 02:04:00,33.5,26.1,29.68,West,273,3.0,3.0,74,0.00,,,0.00,Wunderground v.1.12,2013-02-13 07:04:00,
2013-02-13 02:06:00,33.7,26.3,29.68,West,270,4.0,10.0,74,0.00,,,0.00,Wunderground v.1.12,2013-02-13 07:06:00,
2013-02-13 02:10:00,33.4,26.0,29.68,West,273,3.0,3.0,74,0.00,,,0.00,Wunderground v.1.12,2013-02-13 07:10:00,
2013-02-13 02:16:00,33.1,25.7,29.69,West,273,1.0,1.0,74,0.00,,,0.00,Wunderground v.1.12,2013-02-13 07:16:00,
2013-02-13 02:21:00,32.7,25.6,29.69,West,273,0.0,3.0,75,0.00,,,0.00,Wunderground v.1.12,2013-02-13 07:21:00,
2013-02-13 02:27:00,32.7,25.6,29.69,West,273,1.0,3.0,75,0.00,,,0.00,Wunderground v.1.12,2013-02-13 07:27:00,
2013-02-13 02:33:00,32.5,25.8,29.69,West,273,2.0,2.0,76,0.00,,,0.00,Wunderground v.1.12,2013-02-13 07:33:00,
2013-02-13 02:36:00,32.5,25.8,29.69,West,270,1.0,7.0,76,0.00,,,0.00,Wunderground v.1.12,2013-02-13 07:36:00,
2013-02-13 02:38:00,32.4,25.7,29.69,West,273,2.0,2.0,76,0.00,,,0.00,Wunderground v.1.12,2013-02-13 07:38:00,
2013-02-13 02:44:00,32.1,25.7,29.69,West,273,2.0,3.0,77,0.00,,,0.00,Wunderground v.1.12,2013-02-13 07:44:00,
2013-02-13 02:49:00,32.1,25.7,29.69,West,273,2.0,3.0,77,0.00,,,0.00,Wunderground v.1.12,2013-02-13 07:49:00,
2013-02-13 02:54:00,32.2,25.8,29.69,West,273,3.0,4.0,77,0.00,,,0.00,Wunderground v.1.12,2013-02-13 07:54:00,
2013-02-13 02:59:00,32.2,25.8,29.69,West,273,3.0,3.0,77,0.00,,,0.00,Wunderground v.1.12,2013-02-13 07:59:00,
2013-02-13 03:04:00,32.1,25.7,29.69,West,273,4.0,4.0,77,0.00,,,0.00,Wunderground v.1.12,2013-02-13 08:04:00,
2013-02-13 03:06:00,32.2,25.8,29.69,West,270,2.0,6.0,77,0.00,,,0.00,Wunderground v.1.12,2013-02-13 08:06:00,
2013-02-13 03:10:00,32.2,25.8,29.69,West,273,4.0,4.0,77,0.00,,,0.00,Wunderground v.1.12,2013-02-13 08:10:00,
2013-02-13 03:16:00,32.4,25.4,29.69,West,273,3.0,3.0,75,0.00,,,0.00,Wunderground v.1.12,2013-02-13 08:16:00,
2013-02-13 03:21:00,32.1,25.1,29.69,West,273,2.0,2.0,75,0.00,,,0.00,Wunderground v.1.12,2013-02-13 08:21:00,
2013-02-13 03:26:00,31.9,25.2,29.69,West,273,3.0,4.0,76,0.00,,,0.00,Wunderground v.1.12,2013-02-13 08:26:00,
2013-02-13 03:32:00,32.2,25.2,29.69,West,273,3.0,4.0,75,0.00,,,0.00,Wunderground v.1.12,2013-02-13 08:32:00,
2013-02-13 03:37:00,32.1,25.1,29.69,West,270,3.0,8.0,75,0.00,,,0.00,Wunderground v.1.12,2013-02-13 08:37:00,
2013-02-13 03:38:00,32.2,24.8,29.69,West,273,2.0,3.0,74,0.00,,,0.00,Wunderground v.1.12,2013-02-13 08:38:00,
2013-02-13 03:43:00,32.2,24.8,29.69,West,273,0.0,2.0,74,0.00,,,0.00,Wunderground v.1.12,2013-02-13 08:43:00,
2013-02-13 03:48:00,31.9,24.6,29.70,West,273,1.0,3.0,74,0.00,,,0.00,Wunderground v.1.12,2013-02-13 08:48:00,
2013-02-13 03:55:00,31.8,24.5,29.70,West,273,2.0,2.0,74,0.00,,,0.00,Wunderground v.1.12,2013-02-13 08:55:00,
2013-02-13 04:01:00,31.6,24.3,29.71,West,273,1.0,2.0,74,0.00,,,0.00,Wunderground v.1.12,2013-02-13 09:01:00,
2013-02-13 04:07:00,31.5,24.2,29.71,West,273,1.0,2.0,74,0.00,,,0.00,Wunderground v.1.12,2013-02-13 09:07:00,
2013-02-13 04:12:00,31.3,24.0,29.71,West,273,2.0,2.0,74,0.00,,,0.00,Wunderground v.1.12,2013-02-13 09:12:00,
2013-02-13 04:18:00,31.2,23.9,29.71,West,273,2.0,2.0,74,0.00,,,0.00,Wunderground v.1.12,2013-02-13 09:18:00,
2013-02-13 04:23:00,30.9,23.6,29.71,West,273,1.0,3.0,74,0.00,,,0.00,Wunderground v.1.12,2013-02-13 09:23:00,
2013-02-13 04:29:00,30.7,23.4,29.71,West,273,1.0,3.0,74,0.00,,,0.00,Wunderground v.1.12,2013-02-13 09:29:00,
2013-02-13 04:34:00,31.0,23.7,29.72,West,273,2.0,2.0,74,0.00,,,0.00,Wunderground v.1.12,2013-02-13 09:34:00,
2013-02-13 04:36:00,30.9,23.6,29.72,West,270,2.0,5.0,74,0.00,,,0.00,Wunderground v.1.12,2013-02-13 09:36:00,
2013-02-13 04:40:00,30.9,23.6,29.72,West,273,3.0,3.0,74,0.00,,,0.00,Wunderground v.1.12,2013-02-13 09:40:00,
2013-02-13 04:45:00,30.9,23.6,29.72,West,273,3.0,3.0,74,0.00,,,0.00,Wunderground v.1.12,2013-02-13 09:45:00,
2013-02-13 04:50:00,30.9,23.6,29.72,West,273,2.0,3.0,74,0.00,,,0.00,Wunderground v.1.12,2013-02-13 09:50:00,
2013-02-13 04:57:00,30.7,23.4,29.72,West,273,2.0,3.0,74,0.00,,,0.00,Wunderground v.1.12,2013-02-13 09:57:00,
2013-02-13 05:02:00,30.7,23.7,29.73,West,273,2.0,4.0,75,0.00,,,0.00,Wunderground v.1.12,2013-02-13 10:02:00,
2013-02-13 05:05:00,30.6,23.6,29.73,West,270,2.0,6.0,75,0.00,,,0.00,Wunderground v.1.12,2013-02-13 10:05:00,
2013-02-13 05:08:00,30.6,23.6,29.73,West,273,2.0,4.0,75,0.00,,,0.00,Wunderground v.1.12,2013-02-13 10:08:00,
2013-02-13 05:13:00,30.4,23.7,29.73,West,273,2.0,4.0,76,0.00,,,0.00,Wunderground v.1.12,2013-02-13 10:13:00,
2013-02-13 05:18:00,30.3,23.6,29.74,West,273,3.0,5.0,76,0.00,,,0.00,Wunderground v.1.12,2013-02-13 10:18:00,
2013-02-13 05:23:00,30.1,23.4,29.74,West,273,3.0,4.0,76,0.00,,,0.00,Wunderground v.1.12,2013-02-13 10:23:00,
2013-02-13 05:30:00,30.1,23.8,29.73,West,273,2.0,3.0,77,0.00,,,0.00,Wunderground v.1.12,2013-02-13 10:30:00,
2013-02-13 05:35:00,30.1,23.8,29.73,West,273,3.0,3.0,77,0.00,,,0.00,Wunderground v.1.12,2013-02-13 10:35:00,
2013-02-13 05:37:00,30.1,23.8,29.74,West,270,2.0,6.0,77,0.00,,,0.00,Wunderground v.1.12,2013-02-13 10:37:00,
2013-02-13 05:41:00,30.0,23.7,29.73,West,273,2.0,3.0,77,0.00,,,0.00,Wunderground v.1.12,2013-02-13 10:41:00,
2013-02-13 05:47:00,30.1,23.8,29.73,West,273,2.0,2.0,77,0.00,,,0.00,Wunderground v.1.12,2013-02-13 10:47:00,
2013-02-13 05:52:00,30.0,23.4,29.73,West,273,2.0,3.0,76,0.00,,,0.00,Wunderground v.1.12,2013-02-13 10:52:00,
2013-02-13 05:58:00,29.8,23.5,29.73,West,273,2.0,3.0,77,0.00,,,0.00,Wunderground v.1.12,2013-02-13 10:58:00,
2013-02-13 06:03:00,29.5,23.2,29.74,West,273,1.0,2.0,77,0.00,,,0.00,Wunderground v.1.12,2013-02-13 11:03:00,
2013-02-13 06:08:00,29.7,23.4,29.74,West,270,2.0,5.0,77,0.00,,,0.00,Wunderground v.1.12,2013-02-13 11:08:00,
2013-02-13 06:09:00,29.4,23.1,29.74,West,273,0.0,2.0,77,0.00,,,0.00,Wunderground v.1.12,2013-02-13 11:09:00,
2013-02-13 06:14:00,29.3,23.0,29.74,West,273,0.0,0.0,77,0.00,,,0.00,Wunderground v.1.12,2013-02-13 11:14:00,
2013-02-13 06:20:00,29.1,23.1,29.74,West,273,0.0,0.0,78,0.00,,,0.00,Wunderground v.1.12,2013-02-13 11:20:00,
2013-02-13 06:25:00,29.0,23.0,29.74,West,273,0.0,0.0,78,0.00,,,0.00,Wunderground v.1.12,2013-02-13 11:25:00,
2013-02-13 06:31:00,28.7,22.7,29.74,West,273,0.0,1.0,78,0.00,,,0.00,Wunderground v.1.12,2013-02-13 11:31:00,
2013-02-13 06:36:00,28.7,22.7,29.74,West,270,0.0,3.0,78,0.00,,,0.00,Wunderground v.1.12,2013-02-13 11:36:00,
2013-02-13 06:37:00,28.4,22.7,29.74,West,273,0.0,0.0,79,0.00,,,0.00,Wunderground v.1.12,2013-02-13 11:37:00,
2013-02-13 06:42:00,27.8,22.1,29.74,West,273,0.0,0.0,79,0.00,,,0.00,Wunderground v.1.12,2013-02-13 11:42:00,
2013-02-13 06:51:00,27.2,21.8,29.74,West,273,0.0,0.0,80,0.00,,,0.00,Wunderground v.1.12,2013-02-13 11:51:00,
2013-02-13 06:56:00,27.0,21.9,29.74,West,273,0.0,0.0,81,0.00,,,0.00,Wunderground v.1.12,2013-02-13 11:56:00,
2013-02-13 07:02:00,26.9,21.8,29.75,West,273,0.0,0.0,81,0.00,,,0.00,Wunderground v.1.12,2013-02-13 12:02:00,
2013-02-13 07:06:00,26.9,21.8,29.75,West,270,0.0,1.0,81,0.00,,,0.00,Wunderground v.1.12,2013-02-13 12:06:00,
2013-02-13 07:08:00,26.7,21.9,29.75,West,273,0.0,0.0,82,0.00,,,0.00,Wunderground v.1.12,2013-02-13 12:08:00,
2013-02-13 07:13:00,26.7,21.9,29.75,West,273,0.0,0.0,82,0.00,,,0.00,Wunderground v.1.12,2013-02-13 12:13:00,
2013-02-13 07:20:00,26.7,21.9,29.75,West,273,0.0,0.0,82,0.00,,,0.00,Wunderground v.1.12,2013-02-13 12:20:00,
2013-02-13 07:26:00,26.6,21.8,29.75,West,273,0.0,0.0,82,0.00,,,0.00,Wunderground v.1.12,2013-02-13 12:26:00,
2013-02-13 07:31:00,26.9,22.4,29.75,West,273,0.0,1.0,83,0.00,,,0.00,Wunderground v.1.12,2013-02-13 12:31:00,
2013-02-13 07:37:00,27.5,22.7,29.75,West,273,1.0,2.0,82,0.00,,,0.00,Wunderground v.1.12,2013-02-13 12:37:00,
2013-02-13 07:42:00,28.1,22.7,29.75,West,273,2.0,2.0,80,0.00,,,0.00,Wunderground v.1.12,2013-02-13 12:42:00,
2013-02-13 07:47:00,28.5,22.8,29.75,West,273,2.0,4.0,79,0.00,,,0.00,Wunderground v.1.12,2013-02-13 12:47:00,
2013-02-13 07:53:00,29.1,22.8,29.75,West,273,2.0,3.0,77,0.00,,,0.00,Wunderground v.1.12,2013-02-13 12:53:00,
2013-02-13 07:58:00,29.7,22.7,29.75,West,273,2.0,3.0,75,0.00,,,0.00,Wunderground v.1.12,2013-02-13 12:58:00,
2013-02-13 08:03:00,30.1,22.5,29.75,West,273,3.0,4.0,73,0.00,,,0.00,Wunderground v.1.12,2013-02-13 13:03:00,
2013-02-13 08:07:00,29.8,22.5,29.75,West,270,2.0,4.0,74,0.00,,,0.00,Wunderground v.1.12,2013-02-13 13:07:00,
2013-02-13 08:08:00,30.4,22.4,29.75,West,273,3.0,4.0,72,0.00,,,0.00,Wunderground v.1.12,2013-02-13 13:08:00,
2013-02-13 08:13:00,30.9,22.6,29.75,West,273,3.0,3.0,71,0.00,,,0.00,Wunderground v.1.12,2013-02-13 13:13:00,
2013-02-13 08:19:00,31.3,22.6,29.75,West,273,2.0,4.0,70,0.00,,,0.00,Wunderground v.1.12,2013-02-13 13:19:00,
2013-02-13 08:24:00,31.5,22.5,29.75,West,273,2.0,4.0,69,0.00,,,0.00,Wunderground v.1.12,2013-02-13 13:24:00,
2013-02-13 08:29:00,32.1,22.4,29.75,West,273,2.0,2.0,67,0.00,,,0.00,Wunderground v.1.12,2013-02-13 13:29:00,
2013-02-13 08:35:00,32.5,22.4,29.75,West,273,3.0,6.0,66,0.00,,,0.00,Wunderground v.1.12,2013-02-13 13:35:00,
2013-02-13 08:36:00,32.1,22.4,29.75,West,270,2.0,6.0,67,0.00,,,0.00,Wunderground v.1.12,2013-02-13 13:36:00,
2013-02-13 08:41:00,32.9,22.0,29.75,West,273,4.0,4.0,64,0.00,,,0.00,Wunderground v.1.12,2013-02-13 13:41:00,
2013-02-13 08:46:00,33.1,21.9,29.74,West,281,5.0,5.0,63,0.00,,,0.00,Wunderground v.1.12,2013-02-13 13:46:00,
2013-02-13 08:51:00,33.2,22.0,29.74,WNW,287,4.0,10.0,63,0.00,,,0.00,Wunderground v.1.12,2013-02-13 13:51:00,
2013-02-13 08:57:00,33.4,22.1,29.74,WNW,288,4.0,4.0,63,0.00,,,0.00,Wunderground v.1.12,2013-02-13 13:57:00,
2013-02-13 09:02:00,33.5,21.9,29.74,WSW,248,4.0,5.0,62,0.00,,,0.00,Wunderground v.1.12,2013-02-13 14:02:00,
2013-02-13 09:07:00,33.5,21.9,29.74,West,270,4.0,11.0,62,0.00,,,0.00,Wunderground v.1.12,2013-02-13 14:07:00,
2013-02-13 09:08:00,33.7,22.1,29.74,WSW,254,3.0,3.0,62,0.00,,,0.00,Wunderground v.1.12,2013-02-13 14:08:00,
2013-02-13 09:13:00,34.1,22.4,29.74,WSW,255,3.0,4.0,62,0.00,,,0.00,Wunderground v.1.12,2013-02-13 14:13:00,
2013-02-13 09:19:00,34.6,22.1,29.74,West,259,3.0,9.0,60,0.00,,,0.00,Wunderground v.1.12,2013-02-13 14:19:00,
2013-02-13 09:24:00,34.7,22.2,29.74,West,276,5.0,10.0,60,0.00,,,0.00,Wunderground v.1.12,2013-02-13 14:24:00,
2013-02-13 09:30:00,35.0,22.1,29.74,WNW,284,5.0,5.0,59,0.00,,,0.00,Wunderground v.1.12,2013-02-13 14:30:00,
2013-02-13 09:36:00,35.2,21.9,29.74,WNW,283,5.0,6.0,58,0.00,,,0.00,Wunderground v.1.12,2013-02-13 14:36:00,
2013-02-13 09:42:00,35.5,22.2,29.74,West,262,5.0,5.0,58,0.00,,,0.00,Wunderground v.1.12,2013-02-13 14:42:00,
2013-02-13 09:48:00,35.6,21.9,29.74,WNW,294,6.0,8.0,57,0.00,,,0.00,Wunderground v.1.12,2013-02-13 14:48:00,
2013-02-13 09:53:00,35.9,22.5,29.74,West,260,6.0,8.0,58,0.00,,,0.00,Wunderground v.1.12,2013-02-13 14:53:00,
2013-02-13 09:59:00,36.3,22.1,29.74,West,265,6.0,8.0,56,0.00,,,0.00,Wunderground v.1.12,2013-02-13 14:59:00,
2013-02-13 10:04:00,36.5,21.8,29.74,WNW,285,6.0,13.0,55,0.00,,,0.00,Wunderground v.1.12,2013-02-13 15:04:00,
2013-02-13 10:08:00,36.3,22.1,29.74,West,270,5.0,12.0,56,0.00,,,0.00,Wunderground v.1.12,2013-02-13 15:08:00,
2013-02-13 10:09:00,36.6,21.9,29.74,WSW,248,6.0,11.0,55,0.00,,,0.00,Wunderground v.1.12,2013-02-13 15:09:00,
2013-02-13 10:14:00,37.0,21.4,29.73,West,268,6.0,6.0,53,0.00,,,0.00,Wunderground v.1.12,2013-02-13 15:14:00,
2013-02-13 10:19:00,37.2,22.1,29.73,West,259,6.0,11.0,54,0.00,,,0.00,Wunderground v.1.12,2013-02-13 15:19:00,
2013-02-13 10:25:00,37.5,22.3,29.73,WNW,290,5.0,5.0,54,0.00,,,0.00,Wunderground v.1.12,2013-02-13 15:25:00,
2013-02-13 10:31:00,37.5,21.9,29.72,WNW,296,5.0,6.0,53,0.00,,,0.00,Wunderground v.1.12,2013-02-13 15:31:00,
2013-02-13 10:36:00,37.5,21.5,29.72,WNW,292,5.0,9.0,52,0.00,,,0.00,Wunderground v.1.12,2013-02-13 15:36:00,
2013-02-13 10:41:00,37.5,21.9,29.72,WNW,295,5.0,5.0,53,0.00,,,0.00,Wunderground v.1.12,2013-02-13 15:41:00,
2013-02-13 10:46:00,37.9,22.7,29.72,NNW,330,4.0,6.0,54,0.00,,,0.00,Wunderground v.1.12,2013-02-13 15:46:00,
2013-02-13 10:52:00,38.0,22.4,29.72,WNW,299,3.0,3.0,53,0.00,,,0.00,Wunderground v.1.12,2013-02-13 15:52:00,
2013-02-13 10:57:00,38.2,22.1,29.72,WNW,303,4.0,7.0,52,0.00,,,0.00,Wunderground v.1.12,2013-02-13 15:57:00,
2013-02-13 11:03:00,38.5,21.5,29.71,NNW,328,4.0,4.0,50,0.00,,,0.00,Wunderground v.1.12,2013-02-13 16:03:00,
2013-02-13 11:06:00,38.3,21.7,29.71,WNW,293,4.0,12.0,51,0.00,,,0.00,Wunderground v.1.12,2013-02-13 16:06:00,
2013-02-13 11:08:00,38.8,22.2,29.71,NW,321,4.0,6.0,51,0.00,,,0.00,Wunderground v.1.12,2013-02-13 16:08:00,
2013-02-13 11:15:00,39.1,22.0,29.71,NNW,342,4.0,4.0,50,0.00,,,0.00,Wunderground v.1.12,2013-02-13 16:15:00,
2013-02-13 11:20:00,39.2,22.1,29.71,WNW,294,4.0,6.0,50,0.00,,,0.00,Wunderground v.1.12,2013-02-13 16:20:00,
2013-02-13 11:25:00,38.8,21.3,29.71,WSW,254,5.0,6.0,49,0.00,,,0.00,Wunderground v.1.12,2013-02-13 16:25:00,
2013-02-13 11:31:00,39.1,22.0,29.70,West,273,6.0,6.0,50,0.00,,,0.00,Wunderground v.1.12,2013-02-13 16:31:00,
2013-02-13 11:36:00,39.6,22.9,29.70,WNW,289,4.0,4.0,51,0.00,,,0.00,Wunderground v.1.12,2013-02-13 16:36:00,
2013-02-13 11:41:00,39.8,23.1,29.70,West,266,3.0,4.0,51,0.00,,,0.00,Wunderground v.1.12,2013-02-13 16:41:00,
2013-02-13 11:46:00,39.9,22.3,29.70,NW,307,4.0,4.0,49,0.00,,,0.00,Wunderground v.1.12,2013-02-13 16:46:00,
2013-02-13 11:53:00,39.9,22.3,29.70,NNW,327,4.0,4.0,49,0.00,,,0.00,Wunderground v.1.12,2013-02-13 16:53:00,
2013-02-13 11:58:00,39.9,21.3,29.70,WSW,237,4.0,5.0,47,0.00,,,0.00,Wunderground v.1.12,2013-02-13 16:58:00,
2013-02-13 12:03:00,40.1,21.5,29.69,WNW,294,6.0,8.0,47,0.00,,,0.00,Wunderground v.1.12,2013-02-13 17:03:00,
2013-02-13 12:07:00,39.9,21.3,29.69,West,270,4.0,12.0,47,0.00,,,0.00,Wunderground v.1.12,2013-02-13 17:07:00,
2013-02-13 12:08:00,40.5,21.8,29.69,WNW,292,6.0,6.0,47,0.00,,,0.00,Wunderground v.1.12,2013-02-13 17:08:00,
2013-02-13 12:14:00,40.6,21.9,29.69,WSW,257,3.0,9.0,47,0.00,,,0.00,Wunderground v.1.12,2013-02-13 17:14:00,
2013-02-13 12:19:00,40.5,21.3,29.69,WNW,284,5.0,9.0,46,0.00,,,0.00,Wunderground v.1.12,2013-02-13 17:19:00,
2013-02-13 12:24:00,40.8,22.1,29.69,NW,313,6.0,6.0,47,0.00,,,0.00,Wunderground v.1.12,2013-02-13 17:24:00,
2013-02-13 12:29:00,40.6,21.4,29.70,West,277,5.0,10.0,46,0.00,,,0.00,Wunderground v.1.12,2013-02-13 17:29:00,
2013-02-13 12:34:00,40.6,21.4,29.70,WNW,294,7.0,7.0,46,0.00,,,0.00,Wunderground v.1.12,2013-02-13 17:34:00,
2013-02-13 12:36:00,40.8,21.6,29.70,WNW,293,5.0,13.0,46,0.00,,,0.00,Wunderground v.1.12,2013-02-13 17:36:00,
2013-02-13 12:40:00,40.9,21.2,29.70,West,276,7.0,7.0,45,0.00,,,0.00,Wunderground v.1.12,2013-02-13 17:40:00,
2013-02-13 12:46:00,40.9,21.2,29.69,West,265,7.0,9.0,45,0.00,,,0.00,Wunderground v.1.12,2013-02-13 17:46:00,
2013-02-13 12:51:00,41.1,22.4,29.69,WNW,287,7.0,8.0,47,0.00,,,0.00,Wunderground v.1.12,2013-02-13 17:51:00,
2013-02-13 12:57:00,40.8,20.5,29.69,West,279,6.0,7.0,44,0.00,,,0.00,Wunderground v.1.12,2013-02-13 17:57:00,
2013-02-13 13:03:00,41.6,22.8,29.69,West,279,3.0,4.0,47,0.00,,,0.00,Wunderground v.1.12,2013-02-13 18:03:00,
2013-02-13 13:07:00,41.1,21.3,29.69,West,270,6.0,16.0,45,0.00,,,0.00,Wunderground v.1.12,2013-02-13 18:07:00,
2013-02-13 13:09:00,41.6,22.3,29.69,WNW,288,4.0,7.0,46,0.00,,,0.00,Wunderground v.1.12,2013-02-13 18:09:00,
2013-02-13 13:14:00,41.2,21.4,29.69,WNW,283,6.0,6.0,45,0.00,,,0.00,Wunderground v.1.12,2013-02-13 18:14:00,
2013-02-13 13:20:00,41.5,22.7,29.69,West,274,5.0,5.0,47,0.00,,,0.00,Wunderground v.1.12,2013-02-13 18:20:00,
2013-02-13 13:25:00,41.6,21.3,29.69,WNW,297,4.0,7.0,44,0.00,,,0.00,Wunderground v.1.12,2013-02-13 18:25:00,
2013-02-13 13:31:00,41.8,21.5,29.69,WNW,285,4.0,4.0,44,0.00,,,0.00,Wunderground v.1.12,2013-02-13 18:31:00,
2013-02-13 13:36:00,41.9,21.0,29.69,WSW,244,4.0,11.0,43,0.00,,,0.00,Wunderground v.1.12,2013-02-13 18:36:00,
2013-02-13 13:38:00,41.8,22.0,29.69,WNW,293,5.0,13.0,45,0.00,,,0.00,Wunderground v.1.12,2013-02-13 18:38:00,
2013-02-13 13:42:00,41.9,21.5,29.69,West,271,5.0,5.0,44,0.00,,,0.00,Wunderground v.1.12,2013-02-13 18:42:00,
2013-02-13 13:48:00,41.1,21.3,29.69,WSW,252,6.0,12.0,45,0.00,,,0.00,Wunderground v.1.12,2013-02-13 18:48:00,
2013-02-13 13:53:00,40.3,21.1,29.69,West,266,7.0,7.0,46,0.00,,,0.00,Wunderground v.1.12,2013-02-13 18:53:00,
2013-02-13 13:59:00,40.3,21.6,29.69,WNW,300,4.0,7.0,47,0.00,,,0.00,Wunderground v.1.12,2013-02-13 18:59:00,
2013-02-13 14:04:00,40.5,22.3,29.68,West,271,3.0,5.0,48,0.00,,,0.00,Wunderground v.1.12,2013-02-13 19:04:00,
2013-02-13 14:07:00,40.5,21.3,29.68,West,270,5.0,14.0,46,0.00,,,0.00,Wunderground v.1.12,2013-02-13 19:07:00,
2013-02-13 14:11:00,40.6,20.9,29.68,WSW,248,3.0,10.0,45,0.00,,,0.00,Wunderground v.1.12,2013-02-13 19:11:00,
2013-02-13 14:16:00,40.5,21.3,29.68,West,271,4.0,4.0,46,0.00,,,0.00,Wunderground v.1.12,2013-02-13 19:16:00,
2013-02-13 14:23:00,40.3,21.1,29.68,West,266,4.0,5.0,46,0.00,,,0.00,Wunderground v.1.12,2013-02-13 19:23:00,
2013-02-13 14:28:00,40.5,22.3,29.68,West,267,4.0,5.0,48,0.00,,,0.00,Wunderground v.1.12,2013-02-13 19:28:00,
2013-02-13 14:34:00,40.6,21.9,29.68,West,267,3.0,4.0,47,0.00,,,0.00,Wunderground v.1.12,2013-02-13 19:34:00,
2013-02-13 14:37:00,40.5,21.3,29.68,West,270,4.0,11.0,46,0.00,,,0.00,Wunderground v.1.12,2013-02-13 19:37:00,
2013-02-13 14:40:00,41.5,21.7,29.68,WNW,294,2.0,2.0,45,0.00,,,0.00,Wunderground v.1.12,2013-02-13 19:40:00,
2013-02-13 14:45:00,41.5,21.7,29.67,WNW,296,3.0,3.0,45,0.00,,,0.00,Wunderground v.1.12,2013-02-13 19:45:00,
2013-02-13 14:50:00,41.6,22.3,29.67,WNW,296,2.0,3.0,46,0.00,,,0.00,Wunderground v.1.12,2013-02-13 19:50:00,
2013-02-13 14:55:00,41.9,22.1,29.67,WNW,298,2.0,4.0,45,0.00,,,0.00,Wunderground v.1.12,2013-02-13 19:55:00,
2013-02-13 15:01:00,41.6,22.3,29.66,WNW,285,3.0,4.0,46,0.00,,,0.00,Wunderground v.1.12,2013-02-13 20:01:00,
2013-02-13 15:07:00,41.1,21.9,29.66,WNW,285,2.0,4.0,46,0.00,,,0.00,Wunderground v.1.12,2013-02-13 20:07:00,
2013-02-13 15:12:00,41.1,21.9,29.66,WNW,285,2.0,3.0,46,0.00,,,0.00,Wunderground v.1.12,2013-02-13 20:12:00,
2013-02-13 15:18:00,41.5,22.2,29.66,WNW,285,1.0,3.0,46,0.00,,,0.00,Wunderground v.1.12,2013-02-13 20:18:00,
2013-02-13 15:23:00,41.8,21.5,29.66,West,270,4.0,10.0,44,0.00,,,0.00,Wunderground v.1.12,2013-02-13 20:23:00,
2013-02-13 15:30:00,42.1,20.6,29.66,West,272,5.0,5.0,42,0.00,,,0.00,Wunderground v.1.12,2013-02-13 20:30:00,
2013-02-13 15:35:00,41.6,20.7,29.66,WSW,255,4.0,7.0,43,0.00,,,0.00,Wunderground v.1.12,2013-02-13 20:35:00,
2013-02-13 15:37:00,42.1,20.6,29.66,WNW,293,3.0,12.0,42,0.00,,,0.00,Wunderground v.1.12,2013-02-13 20:37:00,
2013-02-13 15:41:00,41.2,21.4,29.66,West,259,6.0,6.0,45,0.00,,,0.00,Wunderground v.1.12,2013-02-13 20:41:00,
2013-02-13 15:47:00,41.2,20.9,29.66,West,267,5.0,10.0,44,0.00,,,0.00,Wunderground v.1.12,2013-02-13 20:47:00,
2013-02-13 15:53:00,40.9,21.2,29.66,West,272,5.0,6.0,45,0.00,,,0.00,Wunderground v.1.12,2013-02-13 20:53:00,
2013-02-13 15:58:00,40.3,20.6,29.66,West,280,5.0,6.0,45,0.00,,,0.00,Wunderground v.1.12,2013-02-13 20:58:00,
2013-02-13 16:03:00,40.1,21.0,29.66,West,279,4.0,7.0,46,0.00,,,0.00,Wunderground v.1.12,2013-02-13 21:03:00,
2013-02-13 16:06:00,40.3,20.6,29.66,West,270,5.0,12.0,45,0.00,,,0.00,Wunderground v.1.12,2013-02-13 21:06:00,
2013-02-13 16:09:00,40.1,22.0,29.66,West,279,2.0,4.0,48,0.00,,,0.00,Wunderground v.1.12,2013-02-13 21:09:00,
2013-02-13 16:14:00,40.1,21.0,29.65,West,279,2.0,2.0,46,0.00,,,0.00,Wunderground v.1.12,2013-02-13 21:14:00,
2013-02-13 16:20:00,39.9,21.3,29.65,West,277,3.0,4.0,47,0.00,,,0.00,Wunderground v.1.12,2013-02-13 21:20:00,
2013-02-13 16:25:00,40.2,21.0,29.65,West,277,3.0,3.0,46,0.00,,,0.00,Wunderground v.1.12,2013-02-13 21:25:00,
2013-02-13 16:30:00,40.5,21.3,29.64,West,277,2.0,3.0,46,0.00,,,0.00,Wunderground v.1.12,2013-02-13 21:30:00,
2013-02-13 16:35:00,40.5,20.8,29.64,West,277,1.0,2.0,45,0.00,,,0.00,Wunderground v.1.12,2013-02-13 21:35:00,
2013-02-13 16:38:00,40.3,20.6,29.64,West,270,2.0,9.0,45,0.00,,,0.00,Wunderground v.1.12,2013-02-13 21:38:00,
2013-02-13 16:40:00,40.3,20.6,29.64,West,277,1.0,3.0,45,0.00,,,0.00,Wunderground v.1.12,2013-02-13 21:40:00,
2013-02-13 16:46:00,40.3,21.1,29.66,West,277,1.0,1.0,46,0.00,,,0.00,Wunderground v.1.12,2013-02-13 21:46:00,
2013-02-13 16:52:00,40.1,20.4,29.66,West,277,1.0,1.0,45,0.00,,,0.00,Wunderground v.1.12,2013-02-13 21:52:00,
2013-02-13 16:58:00,39.8,21.2,29.66,West,277,1.0,1.0,47,0.00,,,0.00,Wunderground v.1.12,2013-02-13 21:58:00,
2013-02-13 17:04:00,39.5,20.9,29.66,West,277,0.0,0.0,47,0.00,,,0.00,Wunderground v.1.12,2013-02-13 22:04:00,
2013-02-13 17:08:00,39.8,21.2,29.66,West,270,1.0,5.0,47,0.00,,,0.00,Wunderground v.1.12,2013-02-13 22:08:00,
2013-02-13 17:10:00,39.1,21.0,29.66,West,277,0.0,0.0,48,0.00,,,0.00,Wunderground v.1.12,2013-02-13 22:10:00,
2013-02-13 17:16:00,38.6,21.5,29.66,West,277,0.0,0.0,50,0.00,,,0.00,Wunderground v.1.12,2013-02-13 22:16:00,
2013-02-13 17:22:00,38.0,21.0,29.66,West,277,0.0,0.0,50,0.00,,,0.00,Wunderground v.1.12,2013-02-13 22:22:00,
2013-02-13 17:28:00,37.5,21.5,29.66,West,277,0.0,0.0,52,0.00,,,0.00,Wunderground v.1.12,2013-02-13 22:28:00,
2013-02-13 17:33:00,37.0,20.5,29.66,West,277,0.0,0.0,51,0.00,,,0.00,Wunderground v.1.12,2013-02-13 22:33:00,
2013-02-13 17:36:00,37.3,20.8,29.66,West,270,0.0,1.0,51,0.00,,,0.00,Wunderground v.1.12,2013-02-13 22:36:00,
2013-02-13 17:38:00,36.8,21.3,29.66,West,277,0.0,0.0,53,0.00,,,0.00,Wunderground v.1.12,2013-02-13 22:38:00,
2013-02-13 17:44:00,36.2,21.1,29.66,West,277,0.0,0.0,54,0.00,,,0.00,Wunderground v.1.12,2013-02-13 22:44:00,
2013-02-13 17:49:00,35.6,21.0,29.66,West,277,0.0,0.0,55,0.00,,,0.00,Wunderground v.1.12,2013-02-13 22:49:00,
2013-02-13 17:55:00,35.0,20.9,29.66,West,277,0.0,0.0,56,0.00,,,0.00,Wunderground v.1.12,2013-02-13 22:55:00,
2013-02-13 18:01:00,34.6,21.3,29.65,West,277,0.0,0.0,58,0.00,,,0.00,Wunderground v.1.12,2013-02-13 23:01:00,
2013-02-13 18:06:00,34.0,20.8,29.65,West,277,0.0,0.0,58,0.00,,,0.00,Wunderground v.1.12,2013-02-13 23:06:00,
2013-02-13 18:12:00,33.7,21.3,29.65,West,277,0.0,0.0,60,0.00,,,0.00,Wunderground v.1.12,2013-02-13 23:12:00,
2013-02-13 18:17:00,33.4,21.4,29.65,West,277,0.0,0.0,61,0.00,,,0.00,Wunderground v.1.12,2013-02-13 23:17:00,
2013-02-13 18:23:00,32.9,21.3,29.65,West,277,0.0,0.0,62,0.00,,,0.00,Wunderground v.1.12,2013-02-13 23:23:00,
2013-02-13 18:28:00,32.7,21.5,29.65,West,277,0.0,0.0,63,0.00,,,0.00,Wunderground v.1.12,2013-02-13 23:28:00,
2013-02-13 18:33:00,32.2,21.7,29.65,West,277,0.0,0.0,65,0.00,,,0.00,Wunderground v.1.12,2013-02-13 23:33:00,
2013-02-13 18:35:00,32.5,21.3,29.65,N/A,-737280,0.0,0.0,63,0.00,,,0.00,Wunderground v.1.12,2013-02-13 23:35:00,
2013-02-13 18:39:00,31.8,22.1,29.65,West,277,0.0,0.0,67,0.00,,,0.00,Wunderground v.1.12,2013-02-13 23:39:00,
2013-02-13 18:44:00,31.2,21.5,29.66,West,277,0.0,0.0,67,0.00,,,0.00,Wunderground v.1.12,2013-02-13 23:44:00,
2013-02-13 18:49:00,30.9,21.2,29.66,West,277,0.0,0.0,67,0.00,,,0.00,Wunderground v.1.12,2013-02-13 23:49:00,
2013-02-13 18:55:00,30.7,21.4,29.66,West,277,0.0,0.0,68,0.00,,,0.00,Wunderground v.1.12,2013-02-13 23:55:00,
2013-02-13 19:01:00,30.4,21.4,29.66,West,277,0.0,0.0,69,0.00,,,0.00,Wunderground v.1.12,2013-02-14 00:01:00,
2013-02-13 19:06:00,30.1,21.8,29.66,West,277,0.0,0.0,71,0.00,,,0.00,Wunderground v.1.12,2013-02-14 00:06:00,
2013-02-13 19:08:00,30.4,21.4,29.66,N/A,-737280,0.0,0.0,69,0.00,,,0.00,Wunderground v.1.12,2013-02-14 00:08:00,
2013-02-13 19:12:00,29.8,21.2,29.66,West,277,0.0,0.0,70,0.00,,,0.00,Wunderground v.1.12,2013-02-14 00:12:00,
2013-02-13 19:18:00,29.7,21.4,29.66,West,277,0.0,0.0,71,0.00,,,0.00,Wunderground v.1.12,2013-02-14 00:18:00,
2013-02-13 19:23:00,29.5,21.3,29.66,West,277,0.0,0.0,71,0.00,,,0.00,Wunderground v.1.12,2013-02-14 00:23:00,
2013-02-13 19:28:00,29.4,21.2,29.66,West,277,0.0,0.0,71,0.00,,,0.00,Wunderground v.1.12,2013-02-14 00:28:00,
2013-02-13 19:33:00,29.4,21.5,29.66,West,277,0.0,0.0,72,0.00,,,0.00,Wunderground v.1.12,2013-02-14 00:33:00,
2013-02-13 19:37:00,29.4,21.2,29.66,N/A,-737280,0.0,0.0,71,0.00,,,0.00,Wunderground v.1.12,2013-02-14 00:37:00,
2013-02-13 19:39:00,29.4,21.5,29.66,West,277,0.0,0.0,72,0.00,,,0.00,Wunderground v.1.12,2013-02-14 00:39:00,
2013-02-13 19:44:00,29.3,21.7,29.66,West,277,0.0,0.0,73,0.00,,,0.00,Wunderground v.1.12,2013-02-14 00:44:00,
2013-02-13 19:49:00,29.1,21.2,29.65,West,277,0.0,0.0,72,0.00,,,0.00,Wunderground v.1.12,2013-02-14 00:49:00,
2013-02-13 19:55:00,29.0,21.1,29.65,West,277,0.0,0.0,72,0.00,,,0.00,Wunderground v.1.12,2013-02-14 00:55:00,
2013-02-13 20:00:00,28.8,21.2,29.65,West,277,0.0,0.0,73,0.00,,,0.00,Wunderground v.1.12,2013-02-14 01:00:00,
2013-02-13 20:06:00,28.8,21.2,29.65,West,277,0.0,0.0,73,0.00,,,0.00,Wunderground v.1.12,2013-02-14 01:06:00,
2013-02-13 20:11:00,28.7,21.1,29.65,West,277,0.0,0.0,73,0.00,,,0.00,Wunderground v.1.12,2013-02-14 01:11:00,
2013-02-13 20:16:00,28.7,21.1,29.66,West,277,0.0,0.0,73,0.00,,,0.00,Wunderground v.1.12,2013-02-14 01:16:00,
2013-02-13 20:23:00,28.5,21.3,29.66,West,277,0.0,0.0,74,0.00,,,0.00,Wunderground v.1.12,2013-02-14 01:23:00,
2013-02-13 20:28:00,28.4,21.2,29.66,West,277,0.0,0.0,74,0.00,,,0.00,Wunderground v.1.12,2013-02-14 01:28:00,
2013-02-13 20:34:00,28.4,21.5,29.65,West,277,0.0,0.0,75,0.00,,,0.00,Wunderground v.1.12,2013-02-14 01:34:00,
2013-02-13 20:38:00,28.4,21.2,29.65,N/A,-737280,0.0,0.0,74,0.00,,,0.00,Wunderground v.1.12,2013-02-14 01:38:00,
2013-02-13 20:39:00,28.2,21.3,29.65,West,277,0.0,0.0,75,0.00,,,0.00,Wunderground v.1.12,2013-02-14 01:39:00,
2013-02-13 20:44:00,28.2,21.0,29.65,West,277,0.0,0.0,74,0.00,,,0.00,Wunderground v.1.12,2013-02-14 01:44:00,
2013-02-13 20:50:00,28.2,21.0,29.65,West,277,0.0,0.0,74,0.00,,,0.00,Wunderground v.1.12,2013-02-14 01:50:00,
2013-02-13 20:55:00,28.1,20.6,29.65,West,277,0.0,0.0,73,0.00,,,0.00,Wunderground v.1.12,2013-02-14 01:55:00,
2013-02-13 21:00:00,28.1,20.6,29.66,West,277,0.0,0.0,73,0.00,,,0.00,Wunderground v.1.12,2013-02-14 02:00:00,
2013-02-13 21:07:00,28.1,20.9,29.66,West,277,0.0,0.0,74,0.00,,,0.00,Wunderground v.1.12,2013-02-14 02:07:00,
2013-02-13 21:12:00,27.9,20.7,29.66,West,277,0.0,0.0,74,0.00,,,0.00,Wunderground v.1.12,2013-02-14 02:12:00,
2013-02-13 21:18:00,28.1,21.2,29.66,West,277,0.0,0.0,75,0.00,,,0.00,Wunderground v.1.12,2013-02-14 02:18:00,
2013-02-13 21:23:00,28.1,21.2,29.66,West,277,0.0,0.0,75,0.00,,,0.00,Wunderground v.1.12,2013-02-14 02:23:00,
2013-02-13 21:30:00,28.1,21.2,29.65,West,277,0.0,0.0,75,0.00,,,0.00,Wunderground v.1.12,2013-02-14 02:30:00,
2013-02-13 21:35:00,28.1,21.5,29.65,West,277,0.0,0.0,76,0.00,,,0.00,Wunderground v.1.12,2013-02-14 02:35:00,
2013-02-13 21:37:00,28.1,21.2,29.65,N/A,-737280,0.0,0.0,75,0.00,,,0.00,Wunderground v.1.12,2013-02-14 02:37:00,
2013-02-13 21:40:00,27.9,21.3,29.65,West,277,0.0,0.0,76,0.00,,,0.00,Wunderground v.1.12,2013-02-14 02:40:00,
2013-02-13 21:45:00,27.9,21.6,29.65,West,277,0.0,0.0,77,0.00,,,0.00,Wunderground v.1.12,2013-02-14 02:45:00,
2013-02-13 21:50:00,27.9,21.6,29.65,West,277,0.0,0.0,77,0.00,,,0.00,Wunderground v.1.12,2013-02-14 02:50:00,
2013-02-13 21:55:00,27.8,21.5,29.65,West,277,0.0,0.0,77,0.00,,,0.00,Wunderground v.1.12,2013-02-14 02:55:00,
2013-02-13 22:02:00,27.8,21.2,29.65,West,277,0.0,0.0,76,0.00,,,0.00,Wunderground v.1.12,2013-02-14 03:02:00,
2013-02-13 22:07:00,27.8,21.2,29.65,N/A,-737280,0.0,0.0,76,0.00,,,0.00,Wunderground v.1.12,2013-02-14 03:07:00,
2013-02-13 22:11:00,28.1,21.2,29.65,West,277,0.0,0.0,75,0.00,,,0.00,Wunderground v.1.12,2013-02-14 03:11:00,
2013-02-13 22:16:00,28.1,21.2,29.65,West,277,0.0,0.0,75,0.00,,,0.00,Wunderground v.1.12,2013-02-14 03:16:00,
2013-02-13 22:21:00,28.1,21.2,29.65,West,277,0.0,0.0,75,0.00,,,0.00,Wunderground v.1.12,2013-02-14 03:21:00,
2013-02-13 22:28:00,28.2,21.3,29.65,West,277,0.0,0.0,75,0.00,,,0.00,Wunderground v.1.12,2013-02-14 03:28:00,
2013-02-13 22:33:00,28.2,21.3,29.64,West,277,0.0,0.0,75,0.00,,,0.00,Wunderground v.1.12,2013-02-14 03:33:00,
2013-02-13 22:38:00,28.2,21.6,29.64,West,277,0.0,0.0,76,0.00,,,0.00,Wunderground v.1.12,2013-02-14 03:38:00,
2013-02-13 22:44:00,28.1,21.5,29.64,West,277,0.0,0.0,76,0.00,,,0.00,Wunderground v.1.12,2013-02-14 03:44:00,
2013-02-13 22:49:00,28.2,21.9,29.63,West,277,0.0,0.0,77,0.00,,,0.00,Wunderground v.1.12,2013-02-14 03:49:00,
2013-02-13 22:54:00,28.2,21.9,29.63,West,277,0.0,0.0,77,0.00,,,0.00,Wunderground v.1.12,2013-02-14 03:54:00,
2013-02-13 23:01:00,28.2,21.6,29.63,West,277,0.0,0.0,76,0.00,,,0.00,Wunderground v.1.12,2013-02-14 04:01:00,
2013-02-13 23:06:00,28.2,21.6,29.63,West,277,0.0,0.0,76,0.00,,,0.00,Wunderground v.1.12,2013-02-14 04:06:00,
2013-02-13 23:07:00,28.2,21.6,29.63,West,270,0.0,1.0,76,0.00,,,0.00,Wunderground v.1.12,2013-02-14 04:07:00,
2013-02-13 23:13:00,28.2,21.6,29.63,West,277,0.0,0.0,76,0.00,,,0.00,Wunderground v.1.12,2013-02-14 04:13:00,
2013-02-13 23:18:00,28.4,21.5,29.62,West,277,0.0,0.0,75,0.00,,,0.00,Wunderground v.1.12,2013-02-14 04:18:00,
2013-02-13 23:23:00,28.5,21.6,29.62,West,277,0.0,0.0,75,0.00,,,0.00,Wunderground v.1.12,2013-02-14 04:23:00,
2013-02-13 23:29:00,28.5,21.3,29.63,West,277,0.0,0.0,74,0.00,,,0.00,Wunderground v.1.12,2013-02-14 04:29:00,
2013-02-13 23:34:00,28.5,21.3,29.63,West,277,0.0,0.0,74,0.00,,,0.00,Wunderground v.1.12,2013-02-14 04:34:00,
2013-02-13 23:36:00,28.5,21.3,29.63,West,270,0.0,1.0,74,0.00,,,0.00,Wunderground v.1.12,2013-02-14 04:36:00,
2013-02-13 23:40:00,28.8,21.2,29.63,West,277,0.0,0.0,73,0.00,,,0.00,Wunderground v.1.12,2013-02-14 04:40:00,
2013-02-13 23:45:00,29.0,21.1,29.63,West,277,0.0,0.0,72,0.00,,,0.00,Wunderground v.1.12,2013-02-14 04:45:00,
2013-02-13 23:51:00,29.0,21.1,29.63,West,277,0.0,0.0,72,0.00,,,0.00,Wunderground v.1.12,2013-02-14 04:51:00,
2013-02-13 23:56:00,29.0,21.1,29.63,West,277,0.0,0.0,72,0.00,,,0.00,Wunderground v.1.12,2013-02-14 04:56:00,